Regional Weather Roundup
Issued by NWS Sterling, VA

Home | Current Version | Previous Version | Text Only | Print | Product List | Glossary Off
Versions: 1 2 3 4 5 6 7 8 9 10 11 12 13 14 15 16 17 18 19 20 21 22 23 24 25 26 27 28 29 30 31 32 33 34 35 36 37 38 39 40 41 42 43 44 45 46 47 48 49 50

000
ASUS41 KLWX 280810
RWRLWX

REGIONAL WEATHER ROUNDUP
NATIONAL WEATHER SERVICE BALTIMORE MD/WASHINGTON DC
400 AM EDT TUE APR 28 2015

Note: "FAIR" indicates few or no clouds below 12,000 feet
with no significant weather and/or obstructions to visibility.
 TC=TEMPERATURE CELSIUS

 * =Non NWS site. Station does not report precipitation (e.g. rain,
    snow, etc.), thunder, or fog.

DCZ001-MDZ009-015-VAZ040>042-051-053>054-280900-
WASHINGTON METRO

CITY           SKY/WX    TMP DP  RH WIND       PRES   REMARKS
WASHINGTON NAT MOCLDY    49  35  58 NW12G21   29.89S
DULLES         MOCLDY    44  34  67 NW9       29.90S
ANDREWS AFB    MOCLDY    47  35  63 NW13      29.87S
FT BELVOIR     PTCLDY    46  34  63 NW10      29.89S
QUANTICO       CLEAR     47  33  58 N15G26    29.90S
COLLEGE PARK*  CLOUDY    46  36  66 NW5       29.88S
LEESBURG*      MOCLDY    46  37  71 NW10G20   29.91S
MANASSAS*      CLEAR     45  36  70 NW9       29.91S
GAITHERSBURG*  MOCLDY    45  34  65 NW8       29.92S

$$

MDZ006>007-011-014-280900-
BALTIMORE METRO

CITY           SKY/WX    TMP DP  RH WIND       PRES   REMARKS
BWI AIRPORT    MOCLDY    48  36  63 NW10G18   29.85F
MD SCIENCE CTR   N/A     50  36  58 MISG      29.86F
MARTIN STATE   MOCLDY    50  37  62 W13       29.87S
ANNAPOLIS      CLOUDY    50  37  61 NW10      29.85S
FORT MEADE*    CLOUDY    45  36  70 NW6       29.89F

$$

MDZ012-015-019>023-280900-
MARYLAND EASTERN SHORE

CITY           SKY/WX    TMP DP  RH WIND       PRES   REMARKS
OCEAN CITY     CLEAR     46  38  73 NW6       29.81R
SALISBURY      CLEAR     48  38  68 NW10      29.82S
BAY BRIDGE AP*   N/A    N/A N/A N/A NW15G21   29.85F
CAMBRIDGE*     MOCLDY    52  37  58 NW12G18   29.84S
EASTON*        PTCLDY    51  40  67 N12G18    29.87F

$$

MDZ017>025-280900-
SOUTHERN MARYLAND

CITY           SKY/WX    TMP DP  RH WIND       PRES   REMARKS
PATUXENT RIVER CLEAR     47  36  65 W13       29.86R
ST INIGOES     CLEAR     47  36  65 NW8G16    29.86S
LEONARDTOWN*   CLEAR     45  34  65 W6        29.88S

$$

MDZ003>005-280900-
NORTH CENTRAL MARYLAND

CITY           SKY/WX    TMP DP  RH WIND       PRES   REMARKS
FREDERICK*     CLOUDY    48  32  53 NW7       29.93S
HAGERSTOWN APT CLOUDY    44  36  73 NW7       29.91F
WESTMINSTER*   MOCLDY    46  36  66 NW8       29.88S

$$

MDZ501>502-280900-
WESTERN MARYLAND

CITY           SKY/WX    TMP DP  RH WIND       PRES   REMARKS
OAKLAND*       CLOUDY    32 N/A N/A NW6       29.96R FOG
CUMBERLAND*    CLOUDY    46  36  66 N10G17    30.00F

$$

VAZ025>031-280900-
SHENANDOAH VALLEY

CITY           SKY/WX    TMP DP  RH WIND       PRES   REMARKS
WINCHESTER*    CLOUDY    46  32  57 NW13      29.93S
FRONT ROYAL*   CLOUDY    45  32  61 NW5       29.93S
LURAY*         CLOUDY    43  36  75 SE5       29.94F
NEW MARKET*    FAIR      35  31  85 CALM      29.95S
STAUNTON*      CLEAR     40  31  70 CALM      29.97S
WAYNESBORO*    FAIR      40  30  67 N6        29.95S

$$

WVZ021-048>050-054>055-280900-
EASTERN WEST VIRGINIA PANHANDLE

CITY           SKY/WX    TMP DP  RH WIND       PRES   REMARKS
MARTINSBURG    PTCLDY    46  34  62 NW6       29.92F
PETERSBURG*    CLOUDY    42  32  69 N5        29.99S

$$

VAZ036>039-050-280900-
CENTRAL FOOTHILLS

CITY           SKY/WX    TMP DP  RH WIND       PRES   REMARKS
CHARLOTTESVILL CLEAR     45  31  58 NW6       29.92S
CULPEPER*      CLEAR     46  34  61 N6        29.91F
ORANGE*        CLEAR     45  34  65 NW5       29.92F
GORDONSVILLE*  FAIR      42  32  69 CALM      29.91F
WARRENTON*     FAIR      44  36  72 NW6       29.90F

$$

VAZ055>057-280900-
NORTH AND CENTRAL PIEDMONT

CITY           SKY/WX    TMP DP  RH WIND       PRES   REMARKS
FREDERICKSBRG* CLEAR     47  35  63 NW6       29.90S
STAFFORD*      CLEAR     42  32  67 NW7       29.94S

$$

NCZ024-NYZ072-PAZ021-071-VAZ022-071-280900-
OTHER REGIONAL OBSERVATIONS

CITY           SKY/WX    TMP DP  RH WIND       PRES   REMARKS
NEW YORK CITY  PTCLDY    51  37  58 VRB3      29.75S
PHILADELPHIA   CLOUDY    52  37  56 NW10      29.81R
PITTSBURGH     CLOUDY    41  36  82 NW5       30.01F
ROANOKE        PTCLDY    46  33  60 N10       29.98R
RICHMOND       CLEAR     48  33  56 NW9       29.90S
RALEIGH        CLEAR     41  35  79 CALM      29.93S

$$

ANZ530>537-280900-
MARINE OBSERVATIONS

STATION/POSITION TIME  TEMP    WIND        PRES
                       AIR SEA DIR/SP/G
                 (UTC) (F)     (DEG/KT/KT) (MB)
THOMAS PT LIGHT  0800   49 53  310/ 13/ 16 1011.3F
BALT KEY BRIDGE  0700   50     290/ 16/ 18 1011.0F
COVE POINT       0700   48     330/ 12/ 17 1011.4F
LEWISETTA        0700   50 58              1010.8F
SOLOMONS ISLAND  0718      56                N/A
PINEY POINT      0700          340/ 24/ 27   N/A

$$



USA.gov is the U.S. government's official web portal to all federal, state and local government web resources and services.